Regional Weather Roundup
Issued by NWS

Home | Current Version | Previous Version | Text Only | Print | Product List | Glossary Off
Versions: 1 2 3 4 5 6 7 8 9 10 11 12 13 14 15 16 17 18 19 20 21 22 23 24 25 26 27 28 29 30 31 32 33 34 35 36 37 38 39 40 41 42 43 44 45 46 47 48 49 50

000
ASUS45 KTFX 251610
RWRMT
MONTANA REGIONAL WEATHER ROUNDUP
NATIONAL WEATHER SERVICE GREAT FALLS MT
1000 AM MDT SUN SEP 25 2016

NOTE: "FAIR" INDICATES FEW OR NO CLOUDS BELOW 12000 FEET WITH NO
SIGNIFICANT WEATHER AND/OR OBSTRUCTIONS TO VISIBILITY.

MTZ001>007-043-251700-
WEST OF THE DIVIDE

CITY           SKY/WX    TMP DP  RH WIND       PRES   REMARKS
KALISPELL      CLOUDY    49  40  71 CALM      30.43R
MISSOULA       CLOUDY    45  39  79 CALM      30.50R
BUTTE          SUNNY     38  32  79 CALM      30.49S
MULLAN PASS    CLOUDY    42  33  70 SW5       30.47R
ANACONDA         N/A     52  32  46 SE8       30.46S
DEER LODGE       N/A     43  34  70 CALM      30.51R
EUREKA           N/A     55  37  50 SE13      30.40S
HAMILTON         N/A     50  37  62 S7        30.48S
LIBBY            N/A     45  39  81 CALM      30.43R
PLAINS           N/A     47  39  73 CALM      30.43R
RONAN            N/A     54  42  63 SW3       30.44S
$$

MTZ008-052>055-251700-
SOUTHWEST MONTANA

CITY           SKY/WX    TMP DP  RH WIND       PRES   REMARKS
BOZEMAN        SUNNY     46  35  65 S3        30.48S
DILLON           N/A     46  35  65 S6        30.48R
W YELLOWSTONE  SUNNY     37  32  81 NE5       30.53S
ENNIS          SUNNY     50  32  50 S8        30.54R
THREE FORKS      N/A     48  28  46 CALM      30.41S
TWIN BRIDGES     N/A     46  34  63 S7        30.41R
$$

MTZ009-010-012-014-046-048-049-054-251700-
EAST SLOPES AND CENTRAL MONTANA

CITY           SKY/WX    TMP DP  RH WIND       PRES   REMARKS
CUT BANK       PTSUNNY   55  36  48 W15       30.32F
GREAT FALLS    SUNNY     53  35  50 SW17      30.37S
MALMSTROM AFB  SUNNY     53  37  54 SW18      30.37S
HELENA         SUNNY     54  33  45 CALM      30.43S
AUGUSTA        PTSUNNY   54  32  43 W13       30.35F
BOWMANS CRNR     N/A     49  35  59 S14       30.36F
CHOTEAU          N/A     59  34  38 W10G16    30.35F
CONRAD           N/A     58  41  53 SW13      30.31F
FAIRFIELD        N/A     55  35  48 S9        30.34F
POWER          PTSUNNY   53  37  54 SW14      30.35F
RAYNESFORD       N/A     53  34  47 W15G22    30.37F
$$

MTZ011-013-016-021-045-047-050-051-251700-
NORTH CENTRAL MONTANA

CITY           SKY/WX    TMP DP  RH WIND       PRES   REMARKS
HAVRE          SUNNY     51  40  65 SW17      30.32S
LEWISTOWN      SUNNY     51  39  63 SW12      30.38S
N BAR RANCH      N/A     54  36  50 W16G23    30.38F
CHINOOK          N/A     52  45  76 CALM      30.31F
DENTON           N/A     55  36  50 W18       30.32F
GEYSER         PTSUNNY   54  32  43 W13       30.35F
GRASS RANGE      N/A     53  36  53 W18G24    30.34R
JUDITH GAP       N/A     48  36  61 S5        30.39R
ROY              N/A     55  38  51 MISG      30.34R
STANFORD         N/A     53  33  46 W15       30.37R
WINIFRED         N/A     53  38  56 MISG      30.35S
$$

MTZ017>020-022>027-061-062-251700-
NORTHEAST MONTANA

CITY           SKY/WX    TMP DP  RH WIND       PRES   REMARKS
GLASGOW        SUNNY     51  37  58 W12       30.29S
JORDAN           N/A     55  44  66 W6        30.32S
SIDNEY         SUNNY     55  38  52 NW22      30.22R
WOLF POINT     SUNNY     53  41  63 W13       30.28R
PLENTYWOOD       N/A     52  39  62 W15G25    30.19R
POPLAR           N/A     54  41  62 W12       30.25S
SCOBEY           N/A     54  35  48 W16       30.20R
$$

MTZ028>42-056>058-251700-
SOUTHCENTRAL AND SOUTHEAST MONTANA

CITY           SKY/WX    TMP DP  RH WIND       PRES   REMARKS
BAKER          SUNNY     52  36  54 NW23G30   30.30R
BILLINGS       MOSUNNY   53  37  54 SW10      30.40R
LIVINGSTON     SUNNY     52  33  48 SW20      30.43R
MILES CITY     SUNNY     56  36  47 NW15      30.35R
BIG TIMBER     SUNNY     52  32  46 W26       30.42S
EKALAKA          N/A     49  37  63 W15       30.27R
FORSYTH          N/A     54  45  71 W8        30.37R
HARLOWTON        N/A     51  35  55 W25G33    30.40R
LAUREL           N/A     53  36  52 SE3       30.35R
ROUNDUP          N/A     53  38  56 S7        30.25S
$$

REGIONAL REPORTS...DAKOTAS

CITY           SKY/WX    TMP DP  RH WIND       PRES   REMARKS
WILLISTON      SUNNY     54  39  57 NW22G29   30.18R
MINOT          SUNNY     56  43  61 W28G39    30.01R
DICKINSON      SUNNY     51  39  63 NW22G33   30.18R
CROSBY           N/A     54  41  62 NW21G31   30.14R
WATFORD CITY     N/A     54  39  58 NW21      30.18R
BISMARCK       SUNNY     57  44  62 NW23G41   30.06R
GRAND FORKS    LGT RAIN  57  53  86 W20G29    29.72R
FARGO          CLOUDY    59  51  75 W25       29.79R
BUFFALO SD       N/A     54  38  54 NW26G37   30.22R
RAPID CITY     SUNNY     56  31  38 NW29G40   30.32R
$$

REGIONAL REPORTS...WYOMING/IDAHO/WASHINGTON

CITY           SKY/WX    TMP DP  RH WIND       PRES   REMARKS
GILLETTE       SUNNY     51  39  63 NW18      30.41R
SHERIDAN       SUNNY     57  40  52 NW6       30.41S
BUFFALO WY     SUNNY     54  38  54 N7        30.44S
CODY           SUNNY     50  38  63 CALM      30.45F
YELLOWSTONE LA   N/A     41  33  73 CALM      30.54F
IDAHO FALLS    SUNNY     50  35  56 CALM      30.51S
SALMON         SUNNY     43  36  75 W5        30.53S
BOISE          SUNNY     57  36  45 SE5       30.47R
SPOKANE        PTSUNNY   55  38  52 S8        30.42R
$$

REGIONAL REPORTS...ALBERTA

CITY           SKY/WX    TMP DP  RH WIND       PRES   REMARKS
EDMONTON       SUNNY     48  36  61 SW6       30.23R
CALGARY        MOSUNNY   48  30  49 CALM      30.25S
LETHBRIDGE     PTSUNNY   50  36  57 SW10      30.27F
MEDICINE HAT   PTSUNNY   46  37  71 SW9       30.27S
WATERTON GATE    N/A     54  34  47 SW20G33     N/A
MILK RIVER       N/A     50  39  66 W8          N/A
ONEFOUR          N/A     50  34  53 W7          N/A
$$

REGIONAL REPORTS...SASKATCHEWAN

CITY           SKY/WX    TMP DP  RH WIND       PRES   REMARKS
SWIFT CURRENT  SUNNY     50  36  57 W7        30.24R
REGINA         MOSUNNY   52  39  62 NW18G25   30.12S
SASKATOON      SUNNY     52  39  62 NW17G24   30.16R
CYPRESS HILLS    N/A     50  30  46 S7          N/A
VAL MARIE        N/A     54  36  50 NW10        N/A
ROCKGLEN         N/A     52  34  50 NW14G21     N/A
ASSINIBOIA       N/A     50  36  57 W8          N/A
$$



USA.gov is the U.S. government's official web portal to all federal, state and local government web resources and services.